Current weather by "City, St" or "zip code"  
 

Current Conditions: Prattville - Grouby Field, AL

Partly Cloudy


42.0 F

Last Updated on Apr 23 2021, 4:55 am CDT
Humidity: 100%
Wind Speed: N 0.0 mph
Barometer 30.11 in
Dewpoint: 42.3 F
Visibility: 10.00 mi
Precip: --
Heat Index: NA
Wind Chill: NA
Current conditions at:

Prattville - Grouby Field, AL (K1A9)

Lat: 32.4387 Lon: 86.5127

Local Radar Image active severe weather and emergency alerts image image weather storm and storm spotter reports image weather observation monitoring service image
Local
Radar
Active
Alerts
Storm Reports Obs
Monitoring

Sign-up For Email & Text Message Weather Alert Notification Services



Advertise Here

Observation History for Prattville - Grouby Field, AL


Time Wind
(mph)
Vis
(mi)
Weather Precip (in) Temperature (F) Relative
Humidity
Wind
Chill
(F)
Heat
Index
(F)
Pressure
Air Dwpt altimeter
(in)
sea level
(mb)
Rmks
4:55 am CDT N 0.0 10.00 Partly Cloudy -- 42.0 42.3 100% NA NA 30.11 M
3:55 am CDT N 0.0 10.00 Fair -- 42.0 41.7 99% NA NA 30.11 M
3:35 am CDT N 0.0 10.00 Fair -- 42.0 41.4 98% NA NA 30.11 M
2:55 am CDT N 0.0 10.00 Fair -- 43.0 40.8 93% NA NA 30.13 M
2:35 am CDT N 0.0 10.00 Fair -- 43.0 42.4 99% NA NA 30.13 M
1:55 am CDT N 0.0 10.00 Fair -- 44.0 42.1 93% NA NA 30.14 M
12:55 am CDT N 0.0 10.00 Fair -- 45.0 40.6 85% NA NA 30.16 M
11:55 pm CDT N 0.0 10.00 Fair -- 45.0 40.8 85% NA NA 30.16 M
10:55 pm CDT N 0.0 10.00 Fair -- 47.0 41.9 84% NA NA 30.16 M
10:35 pm CDT N 0.0 10.00 Fair -- 47.0 42.1 83% NA NA 30.16 M
9:55 pm CDT N 0.0 10.00 Fair -- 48.0 41.7 78% NA NA 30.16 M
8:55 pm CDT N 0.0 10.00 Fair -- 50.0 43.5 78% NA NA 30.14 M
7:55 pm CDT W 4.6 10.00 Fair -- 54.0 41.7 64% 53 NA 30.14 M
6:55 pm CDT N 0.0 10.00 Fair -- 60.0 36.5 41% NA NA 30.12 M
5:55 pm CDT SE 3.5 10.00 Fair -- 64.0 32.4 30% NA NA 30.13 M
4:55 pm CDT N 0.0 10.00 Fair -- 66.0 30.6 26% NA NA 30.13 M
3:55 pm CDT E 3.5 10.00 Fair -- 66.0 30.4 26% NA NA 30.14 M
2:55 pm CDT N 4.6 10.00 Fair -- 65.0 30.0 27% NA NA 30.18 M
1:55 pm CDT N 0.0 10.00 Fair -- 64.0 28.8 27% NA NA 30.21 M
12:55 pm CDT E 8.1 10.00 Fair -- 61.0 28.0 28% 60 NA 30.23 M
11:55 am CDT E 4.6 10.00 Fair -- 60.0 27.5 30% 60 NA 30.26 M
10:55 am CDT SE 5.8 10.00 Fair -- 57.0 28.0 33% 56 NA 30.27 M
9:55 am CDT E 5.8 10.00 Fair -- 55.0 30.2 39% 54 NA 30.27 M
8:55 am CDT N 0.0 10.00 Fair -- 50.0 34.7 57% NA NA 30.28 M

Regional Weather Observation


Prattville - Grouby Field, AL (K1A9)

Partly Cloudy
42.0 F

Maxwell Air Force Base / Montgomery, AL (KMXF)

Mostly Cloudy
46.0 F

Montgomery, Dannelly Field, AL (KMGM)

A Few Clouds
47.0 F

Alabaster, Shelby County Airport, AL (KEET)

Overcast
49.0 F

Merkel Field Sylacauga Municipal Airport, AL (KSCD)

Mostly Cloudy
44.0 F

Bessemer Airport, AL (KEKY)

Overcast
50.0 F

Advertise Here


Advertise Here